Brainerd, MN

12:25 AM CDT on August 24, 2017 (GMT -0500)
Brainerd-Crow Wing County Regional

Weather History for KBRD - January, 2013

Change the Weather History Date:

Monday, January 7, 2013

  Actual Average Record
Temperature  
Mean Temperature 28 °F -  
Max Temperature 37 °F 17 °F 46 °F (2003)
Min Temperature 18 °F -7 °F -40 °F (1982)
Degree Days  
Heating Degree Days 38    
Moisture  
Dew Point 17 °F    
Average Humidity 70    
Maximum Humidity 85    
Minimum Humidity 53    
Precipitation  
Precipitation 0.00 in - - ()
Sea Level Pressure  
Sea Level Pressure 29.88 in    
Wind  
Wind Speed 12 mph (SW)    
Max Wind Speed 17 mph    
Max Gust Speed 23 mph    
Visibility 10 miles    
Events      
Averages and records for this station are not official NWS values.
T = Trace of Precipitation, MM = Missing Value Source: NWS Daily Summary

Daily Weather History Graph

Daily Weather History Graph

Search for Another Location

Airport or City:

Trip Planner

Search our weather history database for the weather conditions in past years. The results will help you decide how hot, cold, wet, or windy it might be!

Date:

Astronomy

Jan. 07, 2013 Rise Set
Actual Time 7:59 AM CST 4:47 PM CST
Civil Twilight 7:24 AM CST 5:21 PM CST
Nautical Twilight 6:47 AM CST 5:59 PM CST
Astronomical Twilight 6:10 AM CST 6:35 PM CST
Moon 3:19 AM CST (1/7) 1:01 PM CST (1/7)
Length of Visible Light 9h 56m
Length of Day
8h 47m
Waning Crescent, 22% of the Moon is Illuminated
Jan 7
Waning Crescent
Jan 11
New
Jan 18
First Quarter
Jan 26
Full
Feb 3
Last Quarter

Hourly Weather History & Observations

Time (CST) Temp. Windchill Dew Point Humidity Pressure Visibility Wind Dir Wind Speed Gust Speed Precip Events Conditions
12:53 AM 18.0 °F 3.6 °F 10.9 °F 74% 29.90 in 9.0 mi South 15.0 mph - N/A   Clear
1:53 AM 18.0 °F 4.8 °F 10.9 °F 74% 29.87 in 9.0 mi South 12.7 mph - N/A   Clear
2:53 AM 19.0 °F 5.6 °F 12.0 °F 74% 29.84 in 10.0 mi South 13.8 mph - N/A   Clear
3:53 AM 19.9 °F 7.3 °F 12.9 °F 74% 29.84 in 10.0 mi SSW 12.7 mph - N/A   Clear
4:53 AM 19.9 °F 8.6 °F 12.9 °F 74% 29.82 in 10.0 mi SSW 10.4 mph - N/A   Clear
6:53 AM 23.0 °F 11.7 °F 16.0 °F 74% 29.82 in 10.0 mi SSW 11.5 mph - N/A   Mostly Cloudy
7:53 AM 24.1 °F 13.7 °F 17.1 °F 75% 29.84 in 10.0 mi SW 10.4 mph - N/A   Clear
8:53 AM 23.0 °F 13.1 °F 16.0 °F 74% 29.85 in 10.0 mi SW 9.2 mph - N/A   Clear
9:53 AM 26.1 °F 15.0 °F 18.0 °F 71% 29.87 in 10.0 mi SW 12.7 mph - N/A   Clear
10:53 AM 30.9 °F 20.7 °F 21.0 °F 67% 29.87 in 10.0 mi WSW 13.8 mph - N/A   Clear
11:53 AM 35.1 °F 26.9 °F 21.9 °F 59% 29.85 in 10.0 mi WSW 11.5 mph - N/A   Clear
12:53 PM 37.0 °F 28.5 °F 23.0 °F 57% 29.83 in 10.0 mi WSW 13.8 mph - N/A   Clear
1:53 PM 37.9 °F 28.5 °F 21.9 °F 53% 29.84 in 10.0 mi West 17.3 mph 23.0 mph N/A   Clear
2:53 PM 37.0 °F 29.3 °F 21.9 °F 54% 29.85 in 10.0 mi WSW 11.5 mph - N/A   Clear
3:53 PM 35.1 °F 26.9 °F 21.9 °F 59% 29.88 in 10.0 mi WSW 11.5 mph - N/A   Clear
4:53 PM 33.1 °F 24.4 °F 19.9 °F 59% 29.89 in 10.0 mi WSW 11.5 mph - N/A   Clear
5:53 PM 28.9 °F 18.6 °F 19.0 °F 67% 29.91 in 10.0 mi WSW 12.7 mph - N/A   Clear
6:53 PM 26.1 °F 16.2 °F 18.0 °F 71% 29.92 in 10.0 mi WSW 10.4 mph - N/A   Clear
7:53 PM 23.0 °F 17.0 °F 16.0 °F 74% 29.92 in 10.0 mi WSW 4.6 mph - N/A   Clear
8:53 PM 24.1 °F 17.0 °F 17.1 °F 75% 29.94 in 10.0 mi WSW 5.8 mph - N/A   Clear
9:53 PM 19.9 °F 13.4 °F 15.1 °F 81% 29.96 in 10.0 mi SW 4.6 mph - N/A   Clear
10:53 PM 21.0 °F - 16.0 °F 81% 29.96 in 10.0 mi Calm Calm - N/A   Clear
11:53 PM 19.0 °F 11.1 °F 15.1 °F 85% 29.96 in 10.0 mi SSW 5.8 mph - N/A   Clear